AIC137 LIRN-EDDM

Flight info

Callsign AIC137
Flight time N/A
Altitude 40000
Route ALAXI DCT INSOX DCT SUMIR DCT NAXAV DCT SOTOV/N0392F240 T101 BETOS BETOS1A
Aircraft B738/M-SDE2E3FGHIRWXY/LB1

Departure

Time 2026-04-27 20:17
Airport Naples International Airport (LIRN)

Arrival

Time N/A
Airport Munich Airport (EDDM)
Time Latitude Longitude Altitude Speed Heading
2026-04-27 20:11 40.87878 14.28343 289 ft 0 kts 187°
2026-04-27 20:12 40.87891 14.28345 293 ft 4 kts 192°
2026-04-27 20:12 40.87917 14.28356 296 ft 4 kts 210°
2026-04-27 20:13 40.87931 14.28370 294 ft 4 kts 232°
2026-04-27 20:13 40.87939 14.28398 289 ft 0 kts 277°
2026-04-27 20:15 40.87939 14.28397 289 ft 1 kts 277°
2026-04-27 20:15 40.87944 14.28355 292 ft 10 kts 277°
2026-04-27 20:15 40.87958 14.28220 292 ft 18 kts 277°
2026-04-27 20:16 40.87923 14.28060 295 ft 19 kts 231°
2026-04-27 20:16 40.87860 14.27923 296 ft 16 kts 274°
2026-04-27 20:16 40.87927 14.27819 297 ft 15 kts 328°
2026-04-27 20:16 40.88017 14.27839 297 ft 16 kts 54°
2026-04-27 20:17 40.88140 14.28096 291 ft 68 kts 58°
2026-04-27 20:17 40.88529 14.28918 272 ft 140 kts 58°
2026-04-27 20:17 40.89105 14.30157 650 ft 168 kts 60°
2026-04-27 20:17 40.89696 14.31564 1329 ft 180 kts 59°
2026-04-27 20:18 40.90440 14.33107 2142 ft 187 kts 57°
2026-04-27 20:18 40.91147 14.34564 2932 ft 191 kts 58°
2026-04-27 20:18 40.92676 14.37765 3733 ft 222 kts 58°
2026-04-27 20:19 40.93504 14.39508 4160 ft 232 kts 58°
2026-04-27 20:19 40.94371 14.41340 4650 ft 238 kts 58°
2026-04-27 20:19 40.95250 14.43208 5202 ft 240 kts 59°
2026-04-27 20:19 40.96257 14.45001 5614 ft 250 kts 40°
2026-04-27 20:20 40.97879 14.45815 6051 ft 257 kts
2026-04-27 20:20 40.99606 14.45236 6608 ft 261 kts 331°
2026-04-27 20:20 41.01085 14.43733 6900 ft 277 kts 315°
2026-04-27 20:20 41.02579 14.41603 7645 ft 284 kts 310°
2026-04-27 20:21 41.03869 14.39626 8599 ft 283 kts 309°
2026-04-27 20:21 41.05136 14.37618 9552 ft 285 kts 309°
2026-04-27 20:21 41.06415 14.35594 10430 ft 289 kts 310°
2026-04-27 20:21 41.07771 14.33481 10745 ft 314 kts 310°
2026-04-27 20:22 41.09238 14.31230 10944 ft 340 kts 311°
2026-04-27 20:22 41.10849 14.28788 11127 ft 364 kts 311°
2026-04-27 20:22 41.12563 14.26217 11489 ft 379 kts 311°
2026-04-27 20:22 41.14330 14.23582 12144 ft 384 kts 311°
2026-04-27 20:23 41.16116 14.20929 12916 ft 387 kts 312°
2026-04-27 20:23 41.17924 14.18247 13632 ft 392 kts 312°
2026-04-27 20:23 41.19754 14.15535 14345 ft 396 kts 312°
2026-04-27 20:23 41.21594 14.12805 15124 ft 397 kts 312°
2026-04-27 20:24 41.23413 14.10106 15945 ft 397 kts 312°
2026-04-27 20:24 41.25258 14.07367 16732 ft 399 kts 312°
2026-04-27 20:24 41.27115 14.04606 17463 ft 402 kts 312°
2026-04-27 20:24 41.28984 14.01826 18182 ft 404 kts 312°
2026-04-27 20:25 41.30863 13.99027 18798 ft 407 kts 312°
2026-04-27 20:25 41.32756 13.96205 19362 ft 411 kts 312°
2026-04-27 20:25 41.34670 13.93349 19923 ft 415 kts 312°
2026-04-27 20:25 41.36599 13.90467 20493 ft 419 kts 312°
2026-04-27 20:26 41.38517 13.87600 21041 ft 422 kts 312°
2026-04-27 20:26 41.40478 13.84666 21565 ft 426 kts 311°
2026-04-27 20:26 41.42457 13.81701 22031 ft 431 kts 311°
2026-04-27 20:26 41.44453 13.78707 22531 ft 434 kts 311°
2026-04-27 20:27 41.46465 13.75688 23040 ft 437 kts 311°
2026-04-27 20:27 41.48489 13.72646 23523 ft 440 kts 311°
2026-04-27 20:27 41.50528 13.69579 23939 ft 443 kts 311°
2026-04-27 20:27 41.52581 13.66487 24351 ft 446 kts 311°
2026-04-27 20:28 41.54613 13.63425 24768 ft 448 kts 311°
2026-04-27 20:28 41.56680 13.60306 25181 ft 450 kts 311°
2026-04-27 20:28 41.58756 13.57170 25574 ft 452 kts 311°
2026-04-27 20:28 41.60165 13.55040 25833 ft 453 kts 311°
2026-04-27 20:29 41.62941 13.50838 26283 ft 457 kts 311°
2026-04-27 20:29 41.65053 13.47639 26611 ft 460 kts 311°
2026-04-27 20:29 41.67170 13.44427 26953 ft 462 kts 311°
2026-04-27 20:29 41.69298 13.41195 27286 ft 464 kts 311°
2026-04-27 20:30 41.71434 13.37948 27642 ft 465 kts 311°
2026-04-27 20:30 41.73538 13.34747 28101 ft 463 kts 311°
2026-04-27 20:30 41.75690 13.31561 28609 ft 460 kts 313°
2026-04-27 20:30 41.77872 13.28430 29096 ft 459 kts 313°
2026-04-27 20:31 41.80139 13.25433 29544 ft 458 kts 320°
2026-04-27 20:31 41.82730 13.22959 29998 ft 457 kts 328°
2026-04-27 20:31 41.85535 13.20968 30439 ft 456 kts 336°
2026-04-27 20:31 41.88526 13.19546 30786 ft 456 kts 343°
2026-04-27 20:32 41.91573 13.18363 31176 ft 455 kts 343°
2026-04-27 20:32 41.94619 13.17221 31583 ft 454 kts 344°
2026-04-27 20:32 41.97658 13.16088 31995 ft 452 kts 344°
2026-04-27 20:32 42.00643 13.14963 32386 ft 451 kts 343°
2026-04-27 20:33 42.03661 13.13810 32778 ft 450 kts 343°
2026-04-27 20:33 42.06664 13.12650 33160 ft 449 kts 343°
2026-04-27 20:33 42.09669 13.11480 33514 ft 449 kts 343°
2026-04-27 20:33 42.12660 13.10309 33913 ft 447 kts 343°
2026-04-27 20:34 42.15643 13.09138 34295 ft 445 kts 343°
2026-04-27 20:34 42.18613 13.07970 34619 ft 445 kts 343°
2026-04-27 20:34 42.21587 13.06799 34899 ft 445 kts 343°
2026-04-27 20:34 42.24555 13.05630 35177 ft 445 kts 343°
2026-04-27 20:35 42.27521 13.04460 35496 ft 444 kts 343°
2026-04-27 20:35 42.30437 13.03310 35838 ft 442 kts 343°
2026-04-27 20:35 42.33381 13.02147 36163 ft 440 kts 343°
2026-04-27 20:35 42.36325 13.00984 36421 ft 441 kts 343°
2026-04-27 20:36 42.39269 12.99819 36709 ft 441 kts 343°
2026-04-27 20:36 42.42204 12.98657 37003 ft 440 kts 342°
2026-04-27 20:36 42.45142 12.97493 37271 ft 439 kts 342°
2026-04-27 20:36 42.48076 12.96329 37561 ft 439 kts 342°
2026-04-27 20:37 42.51003 12.95166 37857 ft 438 kts 342°
2026-04-27 20:37 42.53886 12.94020 38148 ft 437 kts 342°
2026-04-27 20:37 42.56803 12.92859 38409 ft 437 kts 342°
2026-04-27 20:37 42.59725 12.91696 38652 ft 437 kts 342°
2026-04-27 20:38 42.62641 12.90533 38878 ft 437 kts 342°
2026-04-27 20:38 42.65555 12.89370 39060 ft 437 kts 342°
2026-04-27 20:38 42.68473 12.88204 39210 ft 437 kts 342°
2026-04-27 20:38 42.71394 12.87036 39396 ft 437 kts 342°
2026-04-27 20:39 42.74307 12.85870 39606 ft 436 kts 342°
2026-04-27 20:39 42.77185 12.84717 39775 ft 437 kts 342°
2026-04-27 20:39 42.80102 12.83548 39888 ft 438 kts 342°
2026-04-27 20:39 42.83020 12.82376 40063 ft 437 kts 342°
2026-04-27 20:40 42.88873 12.80023 40108 ft 439 kts 342°
2026-04-27 20:40 42.94719 12.77668 40110 ft 437 kts 342°
2026-04-27 20:41 43.00535 12.75321 40102 ft 435 kts 342°
2026-04-27 20:41 43.06295 12.72991 40102 ft 434 kts 342°
2026-04-27 20:42 43.12080 12.70647 40113 ft 433 kts 342°
2026-04-27 20:42 43.17861 12.68300 40112 ft 433 kts 342°
2026-04-27 20:43 43.23647 12.65946 40106 ft 434 kts 342°
2026-04-27 20:43 43.29399 12.63601 40103 ft 434 kts 342°
2026-04-27 20:44 43.35188 12.61237 40117 ft 434 kts 342°
2026-04-27 20:44 43.40984 12.58865 40107 ft 435 kts 342°
2026-04-27 20:45 43.46780 12.56488 40112 ft 435 kts 342°
2026-04-27 20:45 43.52576 12.54107 40114 ft 435 kts 342°
2026-04-27 20:46 43.58333 12.51737 40114 ft 435 kts 342°
2026-04-27 20:46 43.64131 12.49345 40096 ft 435 kts 342°
2026-04-27 20:47 43.69929 12.46948 40094 ft 435 kts 342°
2026-04-27 20:47 43.75730 12.44545 40099 ft 435 kts 342°
2026-04-27 20:48 43.80554 12.42543 40091 ft 435 kts 341°
2026-04-27 20:48 43.87293 12.39741 40073 ft 436 kts 341°
2026-04-27 20:49 43.93102 12.37321 40082 ft 436 kts 341°
2026-04-27 20:49 43.98911 12.34895 40077 ft 436 kts 341°
2026-04-27 20:50 44.04722 12.32463 40074 ft 436 kts 341°
2026-04-27 20:50 44.10492 12.30044 40072 ft 436 kts 341°
2026-04-27 20:51 44.16300 12.27604 40079 ft 436 kts 341°
2026-04-27 20:51 44.22104 12.25160 40077 ft 436 kts 341°
2026-04-27 20:52 44.27874 12.22726 40080 ft 436 kts 341°
2026-04-27 20:52 44.33678 12.20273 40068 ft 436 kts 341°
2026-04-27 20:53 44.39480 12.17815 40068 ft 436 kts 341°
2026-04-27 20:53 44.45283 12.15352 40068 ft 436 kts 341°
2026-04-27 20:54 44.53942 12.11666 40047 ft 435 kts 341°
2026-04-27 20:55 44.59737 12.09194 40061 ft 435 kts 341°
2026-04-27 20:55 44.65516 12.06723 40056 ft 434 kts 341°
2026-04-27 20:56 44.71291 12.04248 40059 ft 433 kts 341°
2026-04-27 20:56 44.77017 12.01789 40065 ft 433 kts 341°
2026-04-27 20:57 44.82777 11.99311 40052 ft 433 kts 341°
2026-04-27 20:57 44.88531 11.96830 40057 ft 432 kts 341°
2026-04-27 20:58 44.94280 11.94346 40057 ft 432 kts 341°
2026-04-27 20:58 45.00020 11.91860 40056 ft 431 kts 340°
2026-04-27 20:59 45.05717 11.89389 40058 ft 431 kts 340°
2026-04-27 20:59 45.11442 11.86900 40063 ft 430 kts 340°
2026-04-27 21:00 45.17167 11.84406 40078 ft 430 kts 340°
2026-04-27 21:00 45.22880 11.81911 40066 ft 429 kts 340°
2026-04-27 21:01 45.28549 11.79430 40068 ft 429 kts 340°
2026-04-27 21:01 45.34253 11.76929 40063 ft 429 kts 340°
2026-04-27 21:02 45.39953 11.74424 40071 ft 429 kts 340°
2026-04-27 21:02 45.45651 11.71915 40072 ft 429 kts 340°
2026-04-27 21:03 45.51312 11.69417 40075 ft 429 kts 340°
2026-04-27 21:03 45.57011 11.66897 40077 ft 429 kts 340°
2026-04-27 21:04 45.62708 11.64373 40079 ft 429 kts 339°
2026-04-27 21:04 45.68407 11.61842 40078 ft 429 kts 339°
2026-04-27 21:05 45.74059 11.59326 40086 ft 428 kts 339°
2026-04-27 21:05 45.79746 11.56790 40100 ft 428 kts 339°
2026-04-27 21:06 45.85428 11.54251 40104 ft 427 kts 339°
2026-04-27 21:06 45.91107 11.51707 40101 ft 428 kts 339°
2026-04-27 21:07 45.96748 11.49175 40107 ft 428 kts 339°
2026-04-27 21:07 46.02433 11.46617 40115 ft 428 kts 339°
2026-04-27 21:08 46.08123 11.44052 40106 ft 428 kts 339°
2026-04-27 21:08 46.13800 11.41487 40107 ft 427 kts 339°
2026-04-27 21:09 46.19443 11.38932 40121 ft 429 kts 339°
2026-04-27 21:09 46.25154 11.36356 40099 ft 430 kts 341°
2026-04-27 21:10 46.31085 11.34934 40106 ft 433 kts 349°
2026-04-27 21:10 46.37063 11.33919 40104 ft 433 kts 349°
2026-04-27 21:11 46.42999 11.32838 40057 ft 433 kts 348°
2026-04-27 21:11 46.48969 11.31676 40051 ft 432 kts 347°
2026-04-27 21:12 46.54894 11.30303 40042 ft 431 kts 346°
2026-04-27 21:12 46.60808 11.28904 40057 ft 430 kts 347°
2026-04-27 21:13 46.66727 11.27525 40076 ft 431 kts 347°
2026-04-27 21:13 46.72628 11.26161 40086 ft 433 kts 347°
2026-04-27 21:14 46.78573 11.24784 40110 ft 433 kts 347°
2026-04-27 21:14 46.84541 11.23396 39831 ft 438 kts 347°
2026-04-27 21:14 46.87535 11.22701 39439 ft 433 kts 347°
2026-04-27 21:15 46.90515 11.22007 38671 ft 435 kts 346°
2026-04-27 21:15 46.93497 11.21334 37988 ft 432 kts 348°
2026-04-27 21:15 46.96465 11.21098 37272 ft 436 kts 356°
2026-04-27 21:15 46.99490 11.21271 36619 ft 435 kts 358°
2026-04-27 21:16 47.02509 11.21512 35950 ft 435 kts 358°
2026-04-27 21:16 47.05535 11.21762 35198 ft 436 kts 358°
2026-04-27 21:16 47.08564 11.22000 34451 ft 436 kts 358°
2026-04-27 21:16 47.11596 11.22218 33641 ft 437 kts 358°
2026-04-27 21:17 47.14639 11.22424 32811 ft 437 kts 358°
2026-04-27 21:17 47.17682 11.22625 31940 ft 440 kts 358°
2026-04-27 21:17 47.20710 11.22822 31080 ft 442 kts 358°
2026-04-27 21:17 47.23793 11.23023 30171 ft 445 kts 358°
2026-04-27 21:18 47.26894 11.23228 29092 ft 447 kts 358°
2026-04-27 21:18 47.30003 11.23434 27987 ft 448 kts 358°
2026-04-27 21:18 47.33114 11.23641 26969 ft 447 kts 358°
2026-04-27 21:18 47.36239 11.23849 25840 ft 452 kts 359°
2026-04-27 21:19 47.39361 11.24061 25051 ft 446 kts 359°
2026-04-27 21:19 47.41402 11.24201 24543 ft 443 kts 358°
2026-04-27 21:19 47.45555 11.24479 23409 ft 450 kts 359°
2026-04-27 21:20 47.51698 11.24897 21678 ft 438 kts 359°
2026-04-27 21:20 47.54712 11.25103 20875 ft 431 kts 359°
2026-04-27 21:20 47.57687 11.25212 20079 ft 424 kts 357°
2026-04-27 21:20 47.60616 11.25187 19299 ft 418 kts 356°
2026-04-27 21:21 47.63509 11.25133 18551 ft 414 kts 356°
2026-04-27 21:21 47.65408 11.25109 17957 ft 412 kts 357°
2026-04-27 21:21 47.68262 11.25096 17129 ft 407 kts 357°
2026-04-27 21:21 47.72021 11.25150 16067 ft 402 kts
2026-04-27 21:22 47.74778 11.25768 15300 ft 400 kts 11°
2026-04-27 21:22 47.77377 11.27036 14581 ft 398 kts 19°
2026-04-27 21:22 47.79946 11.28521 13827 ft 394 kts 19°
2026-04-27 21:22 47.82493 11.29971 13036 ft 390 kts 19°
2026-04-27 21:23 47.85024 11.31379 12266 ft 386 kts 18°
2026-04-27 21:23 47.87527 11.32560 11841 ft 365 kts 13°
2026-04-27 21:23 47.89895 11.33415 11672 ft 336 kts 11°
2026-04-27 21:23 47.92100 11.34144 11513 ft 313 kts 10°
2026-04-27 21:24 47.93480 11.34597 11406 ft 300 kts 10°
2026-04-27 21:24 47.95487 11.35261 11030 ft 290 kts 10°
2026-04-27 21:24 47.97424 11.35915 10686 ft 281 kts 10°
2026-04-27 21:24 47.99916 11.36771 10129 ft 275 kts 11°
2026-04-27 21:25 48.01779 11.37418 9591 ft 274 kts 11°
2026-04-27 21:25 48.03627 11.38064 9106 ft 271 kts 11°
2026-04-27 21:25 48.04834 11.38489 8860 ft 267 kts 11°
2026-04-27 21:25 48.06615 11.39118 8530 ft 259 kts 11°
2026-04-27 21:26 48.08341 11.39729 8239 ft 252 kts 11°
2026-04-27 21:26 48.10039 11.40330 7971 ft 251 kts 12°
2026-04-27 21:26 48.12303 11.41132 7607 ft 257 kts 12°
2026-04-27 21:26 48.13494 11.41554 7420 ft 264 kts 12°
2026-04-27 21:27 48.15296 11.42195 7114 ft 267 kts 12°
2026-04-27 21:27 48.17075 11.42829 6794 ft 259 kts 12°
2026-04-27 21:27 48.18776 11.43436 6505 ft 251 kts 12°
2026-04-27 21:27 48.20451 11.44034 6206 ft 245 kts 13°
2026-04-27 21:28 48.22109 11.44626 5934 ft 246 kts 13°
2026-04-27 21:28 48.23788 11.45225 5672 ft 252 kts 13°
2026-04-27 21:28 48.25517 11.45843 5569 ft 257 kts 13°
2026-04-27 21:28 48.27226 11.46454 5412 ft 246 kts 13°
2026-04-27 21:29 48.28843 11.47033 5238 ft 234 kts 14°
2026-04-27 21:29 48.30393 11.47609 5085 ft 227 kts 19°
2026-04-27 21:29 48.31653 11.48942 4957 ft 227 kts 56°
2026-04-27 21:29 48.32173 11.51175 4664 ft 228 kts 81°
2026-04-27 21:30 48.32422 11.53489 4350 ft 219 kts 82°
2026-04-27 21:30 48.32605 11.55672 4060 ft 207 kts 84°
2026-04-27 21:30 48.32761 11.57761 3795 ft 195 kts 84°
2026-04-27 21:30 48.32906 11.59721 3533 ft 183 kts 84°
2026-04-27 21:31 48.33047 11.61616 3299 ft 182 kts 84°
2026-04-27 21:31 48.33188 11.63494 3052 ft 179 kts 84°
2026-04-27 21:31 48.33327 11.65339 2813 ft 177 kts 84°
2026-04-27 21:31 48.33464 11.67163 2568 ft 171 kts 83°
2026-04-27 21:32 48.33592 11.68851 2334 ft 155 kts 83°
2026-04-27 21:32 48.33707 11.70375 2158 ft 148 kts 83°
2026-04-27 21:32 48.33754 11.70982 2066 ft 148 kts 83°
2026-04-27 21:32 48.33843 11.72192 1919 ft 146 kts 83°
2026-04-27 21:33 48.33954 11.73713 1719 ft 146 kts 83°
2026-04-27 21:33 48.34076 11.75219 1519 ft 145 kts 83°
2026-04-27 21:33 48.34185 11.76634 1486 ft 125 kts 83°
2026-04-27 21:33 48.34271 11.77750 1484 ft 90 kts 83°
2026-04-27 21:34 48.34329 11.78496 1484 ft 51 kts 83°